This is the latest recevied weather packets stored in our database for station/object S50ME-11. If no packets are shown the sender has not sent any weather packets the latest 10 day(s).
| Time | Temp. | Humidity | Pressure | Rain* | Wind** | Luminosity | Snow |
|---|---|---|---|---|---|---|---|
| 1777527043 | 6.11° C | 45% | 1030.8 hPa | - | - | - | - |
| 1777526148 | 5° C | 45% | 1029.5 hPa | - | - | - | - |
| 1777526143 | 5° C | 45% | 1029.5 hPa | - | - | - | - |
| 1777525248 | 4.44° C | 46% | 1029.5 hPa | - | - | - | - |
| 1777525243 | 4.44° C | 46% | 1029.5 hPa | - | - | - | - |
| 1777524348 | 3.33° C | 46% | 1030.2 hPa | - | - | - | - |
| 1777524342 | 3.33° C | 46% | 1030.2 hPa | - | - | - | - |
| 1777523441 | 3.33° C | 45% | 1030.8 hPa | - | - | - | - |
| 1777522548 | 3.89° C | 45% | 1029.9 hPa | - | - | - | - |
| 1777522541 | 3.89° C | 45% | 1029.9 hPa | - | - | - | - |
| 1777521644 | 3.89° C | 45% | 1029.7 hPa | - | - | - | - |
| 1777521641 | 3.89° C | 45% | 1029.7 hPa | - | - | - | - |
| 1777520740 | 3.33° C | 45% | 1030 hPa | - | - | - | - |
| 1777520603 | 3.89° C | 45% | 1030.3 hPa | - | - | - | - |
| 1777519840 | 3.89° C | 45% | 1030.3 hPa | - | - | - | - |
| 1777519151 | 3.89° C | 45% | 1030.3 hPa | - | - | - | - |
| 1777518940 | 3.89° C | 45% | 1030.3 hPa | - | - | - | - |
| 1777518043 | 3.89° C | 45% | 1030.2 hPa | - | - | - | - |
| 1777518040 | 3.89° C | 45% | 1030.2 hPa | - | - | - | - |
| 1777517142 | 4.44° C | 46% | 1029.7 hPa | - | - | - | - |
| 1777517138 | 4.44° C | 46% | 1029.7 hPa | - | - | - | - |
| 1777516241 | 4.44° C | 45% | 1029.1 hPa | - | - | - | - |
| 1777516238 | 4.44° C | 45% | 1029.1 hPa | - | - | - | - |
| 1777515341 | 5° C | 45% | 1029 hPa | - | - | - | - |
| 1777515338 | 5° C | 45% | 1029 hPa | - | - | - | - |
* Rain since midnight (hover to see other rain measurements)
** Current wind speed in m/s (hover to see current wind gust speed)